| time (UTC) | temp C | wind direction | speed KPH | gust KPH | rain 1hr cm | rain 24hr cm | rain mn cm | humidity % | barometer mb |
| 20260508145714 | 11 | 45 | 3.2 | 11.3 | 0.00 | 0.00 | 0.05 | 66 | 1004.1 |
| 20260508145205 | 11 | 23 | 3.2 | 11.3 | 0.00 | 0.00 | 0.05 | 66 | 1004.2 |
| 20260508144655 | 11 | 45 | 3.2 | 9.7 | 0.00 | 0.00 | 0.05 | 66 | 1004.3 |
| 20260508143635 | 11 | 23 | 3.2 | 9.7 | 0.00 | 0.00 | 0.05 | 66 | 1004.3 |
| 20260508143126 | 11 | 68 | 3.2 | 11.3 | 0.00 | 0.00 | 0.05 | 65 | 1004.4 |
| 20260508142106 | 11 | 113 | 3.2 | 11.3 | 0.00 | 0.00 | 0.05 | 67 | 1004.1 |
| 20260508141554 | 11 | 23 | 3.2 | 11.3 | 0.00 | 0.00 | 0.05 | 67 | 1004.2 |
| 20260508140534 | 10 | 68 | 1.6 | 14.5 | 0.00 | 0.00 | 0.05 | 69 | 1004.3 |
| 20260508140024 | 10 | 45 | 3.2 | 14.5 | 0.00 | 0.00 | 0.05 | 68 | 1004.3 |
| 20260508135005 | 10 | 45 | 4.8 | 12.9 | 0.00 | 0.00 | 0.05 | 69 | 1004.3 |
| 20260508134453 | 10 | 45 | 3.2 | 11.3 | 0.00 | 0.00 | 0.05 | 71 | 1004.3 |
| 20260508133946 | 10 | 23 | 1.6 | 6.4 | 0.00 | 0.00 | 0.05 | 72 | 1004.4 |
| 20260508133434 | 10 | 23 | 3.2 | 9.7 | 0.00 | 0.00 | 0.05 | 72 | 1004.4 |
| 20260508132928 | 10 | 68 | 1.6 | 9.7 | 0.00 | 0.00 | 0.05 | 73 | 1004.8 |
| 20260508132412 | 10 | 68 | 3.2 | 9.7 | 0.00 | 0.00 | 0.05 | 73 | 1004.6 |
| 20260508131902 | 10 | 23 | 3.2 | 11.3 | 0.00 | 0.00 | 0.05 | 73 | 1004.4 |
| 20260508131352 | 10 | 68 | 3.2 | 11.3 | 0.00 | 0.00 | 0.05 | 73 | 1004.4 |
| 20260508125821 | 9 | 90 | 3.2 | 9.7 | 0.00 | 0.00 | 0.05 | 75 | 1004.1 |
| 20260508124801 | 9 | 203 | 1.6 | 6.4 | 0.00 | 0.00 | 0.05 | 75 | 1004.1 |
| 20260508124251 | 9 | 45 | 3.2 | 6.4 | 0.00 | 0.00 | 0.05 | 76 | 1004.0 |
| 20260508123743 | 9 | 113 | 3.2 | 6.4 | 0.00 | 0.00 | 0.05 | 76 | 1004.0 |
| 20260508123236 | 9 | 68 | 1.6 | 11.3 | 0.00 | 0.00 | 0.05 | 77 | 1003.9 |
| 20260508121701 | 8 | 90 | 3.2 | 12.9 | 0.00 | 0.00 | 0.05 | 79 | 1003.8 |
| 20260508121152 | 8 | 0 | 1.6 | 9.7 | 0.00 | 0.00 | 0.05 | 79 | 1003.7 |
| 20260508120640 | 8 | 45 | 3.2 | 6.4 | 0.00 | 0.00 | 0.05 | 80 | 1003.5 |
| 20260508120131 | 8 | 90 | 4.8 | 6.4 | 0.00 | 0.00 | 0.05 | 80 | 1003.2 |
| 20260508115619 | 8 | 23 | 3.2 | 9.7 | 0.00 | 0.00 | 0.05 | 81 | 1003.2 |
| 20260508115112 | 8 | 68 | 3.2 | 9.7 | 0.00 | 0.00 | 0.05 | 81 | 1003.2 |
| 20260508114600 | 8 | 45 | 3.2 | 9.7 | 0.00 | 0.00 | 0.05 | 82 | 1003.1 |
| 20260508114049 | 8 | 338 | 1.6 | 9.7 | 0.00 | 0.00 | 0.05 | 82 | 1003.3 |
| 20260508113540 | 8 | 113 | 3.2 | 6.4 | 0.00 | 0.00 | 0.05 | 82 | 1003.2 |
| 20260508113029 | 8 | 338 | 1.6 | 11.3 | 0.00 | 0.00 | 0.05 | 83 | 1003.1 |
| 20260508112520 | 8 | 68 | 3.2 | 11.3 | 0.00 | 0.00 | 0.05 | 83 | 1003.0 |
| 20260508111459 | 8 | 68 | 3.2 | 9.7 | 0.00 | 0.00 | 0.05 | 83 | 1003.0 |
| 20260508110948 | 8 | 0 | 3.2 | 9.7 | 0.00 | 0.00 | 0.05 | 84 | 1003.1 |
| 20260508104908 | 8 | 0 | 3.2 | 9.7 | 0.00 | 0.00 | 0.05 | 84 | 1002.8 |
| 20260508104357 | 8 | 90 | 3.2 | 6.4 | 0.00 | 0.00 | 0.05 | 84 | 1002.9 |
| 20260508103847 | 8 | 68 | 1.6 | 6.4 | 0.00 | 0.00 | 0.05 | 83 | 1002.7 |
| 20260508103338 | 8 | 45 | 0.0 | 6.4 | 0.00 | 0.00 | 0.05 | 83 | 1002.4 |
| 20260508102828 | 8 | 45 | 3.2 | 9.7 | 0.00 | 0.00 | 0.05 | 82 | 1002.7 |
| 20260508102318 | 8 | 68 | 1.6 | 9.7 | 0.00 | 0.00 | 0.05 | 82 | 1002.6 |
| 20260508101256 | 8 | 293 | 3.2 | 6.4 | 0.00 | 0.00 | 0.05 | 83 | 1002.2 |
| 20260508100749 | 8 | 45 | 3.2 | 6.4 | 0.00 | 0.00 | 0.05 | 82 | 1002.3 |
| 20260508100237 | 8 | 45 | 3.2 | 6.4 | 0.00 | 0.00 | 0.05 | 82 | 1002.1 |
| 20260508095220 | 8 | 68 | 3.2 | 9.7 | 0.00 | 0.00 | 0.05 | 83 | 1001.7 |
| 20260508094156 | 8 | 23 | 3.2 | 14.5 | 0.00 | 0.00 | 0.05 | 89 | 1001.7 |
| 20260508093647 | 8 | 45 | 3.2 | 6.4 | 0.00 | 0.00 | 0.05 | 90 | 1001.9 |
| 20260508093138 | 8 | 23 | 3.2 | 6.4 | 0.00 | 0.00 | 0.05 | 89 | 1001.8 |
| 20260508092625 | 8 | 68 | 3.2 | 6.4 | 0.00 | 0.00 | 0.05 | 88 | 1001.7 |
| 20260508092116 | 8 | 45 | 3.2 | 6.4 | 0.00 | 0.00 | 0.05 | 87 | 1001.7 |
| 20260508091604 | 8 | 113 | 3.2 | 9.7 | 0.00 | 0.00 | 0.05 | 85 | 1001.7 |
| 20260508090546 | 8 | 90 | 3.2 | 11.3 | 0.00 | 0.00 | 0.05 | 84 | 1001.4 |
| 20260508085525 | 8 | 23 | 3.2 | 6.4 | 0.00 | 0.00 | 0.05 | 86 | 1001.2 |
| 20260508085015 | 8 | 0 | 1.6 | 9.7 | 0.00 | 0.00 | 0.05 | 86 | 1001.5 |
| 20260508084504 | 8 | 23 | 3.2 | 9.7 | 0.00 | 0.00 | 0.05 | 86 | 1001.5 |
| 20260508083954 | 8 | 68 | 1.6 | 9.7 | 0.00 | 0.00 | 0.05 | 86 | 1001.6 |
| 20260508083447 | 8 | 68 | 3.2 | 11.3 | 0.00 | 0.00 | 0.05 | 85 | 1001.5 |
| 20260508082934 | 8 | 68 | 1.6 | 11.3 | 0.00 | 0.00 | 0.05 | 85 | 1001.6 |
| 20260508082424 | 8 | 23 | 0.0 | 9.7 | 0.00 | 0.00 | 0.05 | 85 | 1001.5 |
| 20260508081403 | 8 | 68 | 1.6 | 9.7 | 0.00 | 0.00 | 0.05 | 87 | 1001.4 |
| 20260508080343 | 8 | 68 | 1.6 | 6.4 | 0.00 | 0.00 | 0.05 | 85 | 1001.6 |
| 20260508075834 | 8 | 68 | 1.6 | 9.7 | 0.00 | 0.00 | 0.05 | 85 | 1001.5 |
| 20260508075324 | 8 | 338 | 1.6 | 9.7 | 0.00 | 0.00 | 0.05 | 86 | 1001.4 |
| 20260508074813 | 8 | 23 | 1.6 | 9.7 | 0.00 | 0.00 | 0.05 | 87 | 1001.4 |
| 20260508074302 | 8 | 45 | 1.6 | 9.7 | 0.00 | 0.00 | 0.05 | 87 | 1001.6 |
| 20260508073752 | 8 | 68 | 1.6 | 9.7 | 0.00 | 0.00 | 0.05 | 87 | 1001.5 |
| 20260508073243 | 8 | 113 | 1.6 | 9.7 | 0.00 | 0.00 | 0.05 | 87 | 1001.4 |
| 20260508072734 | 8 | 0 | 3.2 | 6.4 | 0.00 | 0.00 | 0.05 | 87 | 1001.8 |
| 20260508072222 | 8 | 293 | 3.2 | 6.4 | 0.00 | 0.00 | 0.05 | 88 | 1001.6 |
| 20260508070651 | 8 | 45 | 1.6 | 6.4 | 0.00 | 0.00 | 0.05 | 90 | 1001.8 |
| 20260508070142 | 8 | 315 | 1.6 | 6.4 | 0.00 | 0.00 | 0.05 | 91 | 1002.1 |
| 20260508065631 | 8 | 90 | 3.2 | 6.4 | 0.00 | 0.00 | 0.05 | 91 | 1002.0 |
| 20260508065120 | 8 | 338 | 1.6 | 12.9 | 0.00 | 0.00 | 0.05 | 90 | 1002.2 |
| 20260508064611 | 8 | 68 | 3.2 | 12.9 | 0.00 | 0.00 | 0.05 | 88 | 1002.3 |
| 20260508063550 | 9 | 23 | 3.2 | 11.3 | 0.00 | 0.00 | 0.05 | 85 | 1002.2 |
| 20260508063041 | 9 | 68 | 3.2 | 11.3 | 0.00 | 0.00 | 0.05 | 85 | 1002.0 |
| 20260508062533 | 9 | 90 | 3.2 | 9.7 | 0.00 | 0.00 | 0.05 | 82 | 1002.0 |
| 20260508061513 | 10 | 338 | 1.6 | 6.4 | 0.00 | 0.00 | 0.05 | 82 | 1002.0 |
| 20260508061002 | 10 | 68 | 1.6 | 6.4 | 0.00 | 0.00 | 0.05 | 82 | 1002.0 |
| 20260508060449 | 9 | 23 | 0.0 | 0.0 | 0.00 | 0.00 | 0.05 | 82 | 1002.1 |
| 20260508060224 | 10 | 23 | 0.0 | 0.0 | 0.00 | 0.00 | 0.05 | 83 | 1002.1 |
| 20260508055647 | 10 | 45 | 3.2 | 6.4 | 0.00 | 0.51 | 0.05 | 84 | 1002.2 |
| 20260508054624 | 10 | 0 | 1.6 | 6.4 | 0.00 | 0.51 | 0.05 | 85 | 1002.0 |
| 20260508053603 | 10 | 90 | 1.6 | 6.4 | 0.00 | 0.51 | 0.05 | 85 | 1002.0 |
| 20260508052543 | 10 | 45 | 3.2 | 6.4 | 0.00 | 0.51 | 0.05 | 87 | 1002.0 |
| 20260508052034 | 10 | 23 | 1.6 | 6.4 | 0.00 | 0.51 | 0.05 | 88 | 1002.0 |
| 20260508051533 | 10 | 225 | 3.2 | 6.4 | 0.00 | 0.51 | 0.05 | 89 | 1002.1 |
| 20260508050503 | 10 | 68 | 1.6 | 6.4 | 0.03 | 0.51 | 0.05 | 90 | 1002.0 |
| 20260508045953 | 10 | 68 | 1.6 | 6.4 | 0.03 | 0.51 | 0.05 | 90 | 1002.0 |
| 20260508045443 | 10 | 45 | 3.2 | 6.4 | 0.03 | 0.51 | 0.05 | 89 | 1001.8 |
| 20260508044422 | 10 | 23 | 3.2 | 11.3 | 0.03 | 0.51 | 0.05 | 90 | 1001.7 |
| 20260508043914 | 10 | 0 | 3.2 | 6.4 | 0.03 | 0.51 | 0.05 | 92 | 1001.6 |
| 20260508043402 | 10 | 0 | 3.2 | 11.3 | 0.03 | 0.51 | 0.05 | 91 | 1001.7 |
| 20260508042852 | 10 | 113 | 4.8 | 11.3 | 0.03 | 0.51 | 0.05 | 92 | 1001.8 |
| 20260508042342 | 10 | 158 | 4.8 | 9.7 | 0.03 | 0.51 | 0.05 | 92 | 1001.8 |
| 20260508041833 | 10 | 68 | 1.6 | 6.4 | 0.03 | 0.51 | 0.05 | 93 | 1001.6 |
| 20260508041324 | 10 | 90 | 1.6 | 6.4 | 0.03 | 0.51 | 0.05 | 93 | 1001.5 |
| 20260508040811 | 10 | 90 | 1.6 | 6.4 | 0.03 | 0.51 | 0.05 | 92 | 1001.7 |
| 20260508040301 | 10 | 45 | 3.2 | 6.4 | 0.03 | 0.48 | 0.03 | 92 | 1001.4 |
| 20260508035751 | 10 | 45 | 3.2 | 9.7 | 0.03 | 0.48 | 0.03 | 91 | 1001.6 |
| 20260508035244 | 10 | 68 | 1.6 | 12.9 | 0.03 | 0.48 | 0.03 | 92 | 1001.6 |
| 20260508034731 | 10 | 113 | 3.2 | 12.9 | 0.03 | 0.48 | 0.03 | 93 | 1001.6 |
| 20260508034220 | 10 | 68 | 4.8 | 12.9 | 0.03 | 0.48 | 0.03 | 93 | 1001.7 |
| 20260508033711 | 10 | 45 | 3.2 | 6.4 | 0.03 | 0.48 | 0.03 | 94 | 1001.5 |
| 20260508033200 | 10 | 0 | 1.6 | 9.7 | 0.03 | 0.48 | 0.03 | 94 | 1001.7 |
| 20260508032139 | 10 | 68 | 3.2 | 14.5 | 0.03 | 0.48 | 0.03 | 94 | 1001.6 |
| 20260508031631 | 10 | 90 | 3.2 | 6.4 | 0.03 | 0.48 | 0.03 | 93 | 1001.3 |
| 20260508031120 | 10 | 68 | 1.6 | 6.4 | 0.03 | 0.48 | 0.03 | 93 | 1001.6 |
| 20260508030609 | 11 | 68 | 1.6 | 6.4 | 0.00 | 0.46 | 0.00 | 93 | 1001.4 |
| 20260508030105 | 11 | 90 | 1.6 | 3.2 | 0.03 | 0.46 | 0.00 | 93 | 1001.2 |
| 20260508025551 | 11 | 45 | 1.6 | 6.4 | 0.03 | 0.46 | 4.09 | 93 | 1001.5 |
| 20260508024530 | 11 | 68 | 3.2 | 9.7 | 0.05 | 0.46 | 4.09 | 93 | 1001.0 |
| 20260508023508 | 11 | 90 | 3.2 | 11.3 | 0.05 | 0.46 | 4.09 | 93 | 1001.1 |
| 20260508022959 | 11 | 45 | 3.2 | 6.4 | 0.05 | 0.46 | 4.09 | 93 | 1001.4 |
| 20260508022450 | 11 | 45 | 3.2 | 6.4 | 0.05 | 0.46 | 4.09 | 93 | 1001.2 |
| 20260508021940 | 11 | 315 | 3.2 | 6.4 | 0.05 | 0.46 | 4.09 | 93 | 1001.2 |
| 20260508021428 | 11 | 68 | 1.6 | 9.7 | 0.05 | 0.46 | 4.09 | 94 | 1001.1 |
| 20260508020919 | 11 | 45 | 1.6 | 9.7 | 0.05 | 0.46 | 4.09 | 93 | 1001.2 |
| 20260508015857 | 11 | 180 | 3.2 | 6.4 | 0.03 | 0.43 | 4.04 | 93 | 1001.2 |
| 20260508015347 | 11 | 135 | 3.2 | 9.7 | 0.03 | 0.43 | 4.04 | 92 | 1001.3 |
| 20260508014838 | 11 | 68 | 3.2 | 9.7 | 0.03 | 0.43 | 4.04 | 92 | 1001.3 |
| 20260508014332 | 11 | 45 | 1.6 | 9.7 | 0.00 | 0.38 | 4.01 | 91 | 1001.6 |
| 20260508013817 | 11 | 0 | 3.2 | 9.7 | 0.00 | 0.38 | 4.01 | 91 | 1001.5 |
| 20260508013309 | 11 | 45 | 3.2 | 11.3 | 0.00 | 0.38 | 4.01 | 92 | 1001.6 |
| 20260508012800 | 11 | 45 | 1.6 | 11.3 | 0.00 | 0.38 | 4.01 | 92 | 1001.3 |
| 20260508012247 | 11 | 45 | 3.2 | 6.4 | 0.00 | 0.38 | 4.01 | 92 | 1001.6 |
| 20260508011736 | 11 | 113 | 1.6 | 6.4 | 0.00 | 0.38 | 4.01 | 92 | 1001.8 |
| 20260508011226 | 11 | 23 | 3.2 | 6.4 | 0.00 | 0.38 | 4.01 | 93 | 1001.8 |
| 20260508010717 | 11 | 270 | 1.6 | 12.9 | 0.00 | 0.38 | 4.01 | 92 | 1002.0 |
| 20260508010207 | 11 | 113 | 1.6 | 12.9 | 0.00 | 0.38 | 4.01 | 92 | 1002.0 |
| 20260508005658 | 11 | 68 | 3.2 | 6.4 | 0.00 | 0.38 | 4.01 | 91 | 1001.8 |
| 20260508005146 | 12 | 248 | 1.6 | 6.4 | 0.00 | 0.38 | 4.01 | 90 | 1002.0 |
| 20260508004635 | 12 | 23 | 0.0 | 6.4 | 0.00 | 0.38 | 4.01 | 89 | 1001.4 |
| 20260508003105 | 12 | 68 | 3.2 | 12.9 | 0.00 | 0.38 | 4.01 | 84 | 1001.9 |
| 20260508001535 | 12 | 23 | 3.2 | 14.5 | 0.00 | 0.38 | 4.01 | 81 | 1002.0 |
| 20260508000006 | 13 | 0 | 3.2 | 12.9 | 0.00 | 0.38 | 4.01 | 80 | 1001.6 |
| 20260507234945 | 13 | 23 | 3.2 | 6.4 | 0.00 | 0.38 | 4.01 | 80 | 1001.8 |
| 20260507234433 | 13 | 113 | 1.6 | 6.4 | 0.00 | 0.38 | 4.01 | 81 | 1001.9 |
| 20260507233924 | 13 | 90 | 1.6 | 9.7 | 0.00 | 0.38 | 4.01 | 81 | 1001.8 |
| 20260507233413 | 13 | 45 | 1.6 | 9.7 | 0.00 | 0.38 | 4.01 | 81 | 1001.6 |
| 20260507232904 | 13 | 45 | 1.6 | 9.7 | 0.00 | 0.38 | 4.01 | 81 | 1001.8 |
| 20260507232353 | 13 | 270 | 3.2 | 9.7 | 0.00 | 0.38 | 4.01 | 82 | 1001.8 |
| 20260507231843 | 13 | 90 | 3.2 | 9.7 | 0.00 | 0.38 | 4.01 | 82 | 1001.6 |
| 20260507230823 | 13 | 23 | 3.2 | 11.3 | 0.00 | 0.38 | 4.01 | 83 | 1001.9 |
| 20260507230312 | 13 | 248 | 3.2 | 11.3 | 0.00 | 0.38 | 4.01 | 83 | 1001.9 |
| 20260507225803 | 13 | 113 | 1.6 | 6.4 | 0.00 | 0.38 | 4.01 | 84 | 1002.1 |
| 20260507224743 | 13 | 0 | 1.6 | 6.4 | 0.00 | 0.38 | 4.01 | 83 | 1002.4 |
| 20260507224233 | 13 | 45 | 3.2 | 6.4 | 0.00 | 0.38 | 4.01 | 82 | 1002.1 |
| 20260507223722 | 13 | 68 | 3.2 | 6.4 | 0.00 | 0.38 | 4.01 | 81 | 1002.2 |
| 20260507223212 | 13 | 23 | 3.2 | 9.7 | 0.00 | 0.38 | 4.01 | 80 | 1002.0 |
| 20260507222702 | 13 | 23 | 1.6 | 9.7 | 0.00 | 0.38 | 4.01 | 79 | 1002.0 |
| 20260507222152 | 13 | 23 | 1.6 | 6.4 | 0.00 | 0.38 | 4.01 | 78 | 1001.9 |
| 20260507221642 | 13 | 0 | 1.6 | 6.4 | 0.00 | 0.38 | 4.01 | 78 | 1001.9 |
| 20260507221134 | 13 | 45 | 1.6 | 6.4 | 0.00 | 0.38 | 4.01 | 77 | 1001.7 |
| 20260507220621 | 13 | 45 | 1.6 | 6.4 | 0.00 | 0.38 | 4.01 | 77 | 1001.8 |
| 20260507215601 | 13 | 68 | 1.6 | 6.4 | 0.00 | 0.38 | 4.01 | 77 | 1001.7 |
| 20260507215050 | 14 | 90 | 1.6 | 9.7 | 0.00 | 0.38 | 4.01 | 76 | 1001.8 |
| 20260507214540 | 14 | 90 | 1.6 | 9.7 | 0.00 | 0.38 | 4.01 | 76 | 1001.2 |
| 20260507214030 | 14 | 45 | 1.6 | 6.4 | 0.00 | 0.38 | 4.01 | 76 | 1001.3 |
| 20260507213010 | 14 | 68 | 1.6 | 6.4 | 0.00 | 0.38 | 4.01 | 75 | 1001.4 |
| 20260507211950 | 14 | 68 | 3.2 | 6.4 | 0.00 | 0.38 | 4.01 | 74 | 1001.7 |
| 20260507211440 | 14 | 45 | 1.6 | 6.4 | 0.00 | 0.38 | 4.01 | 74 | 1001.7 |
| 20260507210929 | 14 | 68 | 3.2 | 6.4 | 0.00 | 0.38 | 4.01 | 75 | 1001.3 |
| 20260507205909 | 14 | 293 | 3.2 | 9.7 | 0.00 | 0.38 | 4.01 | 74 | 1001.3 |
| 20260507205359 | 14 | 68 | 3.2 | 9.7 | 0.00 | 0.38 | 4.01 | 73 | 1001.5 |
| 20260507204849 | 15 | 0 | 1.6 | 3.2 | 0.00 | 0.38 | 4.01 | 73 | 1001.7 |
| 20260507204338 | 15 | 90 | 1.6 | 6.4 | 0.00 | 0.38 | 4.01 | 73 | 1001.4 |
| 20260507203319 | 15 | 23 | 1.6 | 6.4 | 0.00 | 0.38 | 4.01 | 72 | 1001.6 |
| 20260507202809 | 15 | 68 | 3.2 | 6.4 | 0.00 | 0.38 | 4.01 | 71 | 1001.3 |
| 20260507202258 | 15 | 293 | 1.6 | 9.7 | 0.00 | 0.38 | 4.01 | 71 | 1001.3 |
| 20260507201747 | 15 | 45 | 3.2 | 11.3 | 0.00 | 0.38 | 4.01 | 70 | 1001.2 |
| 20260507201239 | 15 | 248 | 3.2 | 11.3 | 0.00 | 0.38 | 4.01 | 71 | 1001.3 |
| 20260507200728 | 15 | 0 | 3.2 | 9.7 | 0.00 | 0.38 | 4.01 | 71 | 1000.9 |
| 20260507200217 | 15 | 90 | 1.6 | 9.7 | 0.00 | 0.38 | 4.01 | 71 | 1000.4 |
| 20260507195707 | 15 | 338 | 1.6 | 6.4 | 0.00 | 0.38 | 4.01 | 71 | 999.9 |
| 20260507195157 | 15 | 45 | 1.6 | 6.4 | 0.00 | 0.38 | 4.01 | 71 | 999.9 |
| 20260507194657 | 15 | 338 | 1.6 | 6.4 | 0.00 | 0.38 | 4.01 | 72 | 999.8 |
| 20260507194137 | 15 | 45 | 3.2 | 6.4 | 0.00 | 0.38 | 4.01 | 72 | 1000.1 |
| 20260507193628 | 15 | 90 | 3.2 | 6.4 | 0.00 | 0.38 | 4.01 | 71 | 999.8 |
| 20260507192607 | 15 | 90 | 3.2 | 9.7 | 0.00 | 0.38 | 4.01 | 72 | 999.8 |
| 20260507192056 | 15 | 23 | 3.2 | 6.4 | 0.00 | 0.38 | 4.01 | 71 | 999.8 |
| 20260507191547 | 15 | 45 | 1.6 | 6.4 | 0.00 | 0.38 | 4.01 | 71 | 1000.3 |
| 20260507191039 | 15 | 45 | 1.6 | 3.2 | 0.00 | 0.38 | 4.01 | 72 | 1000.7 |
| 20260507190527 | 15 | 0 | 3.2 | 6.4 | 0.00 | 0.38 | 4.01 | 72 | 1001.1 |
| 20260507190017 | 15 | 23 | 1.6 | 6.4 | 0.00 | 0.38 | 4.01 | 72 | 1001.5 |
| 20260507184955 | 15 | 90 | 3.2 | 11.3 | 0.00 | 0.38 | 4.01 | 73 | 1001.3 |
| 20260507184448 | 15 | 23 | 3.2 | 11.3 | 0.00 | 0.38 | 4.01 | 73 | 1001.4 |
| 20260507183937 | 15 | 23 | 1.6 | 6.4 | 0.00 | 0.38 | 4.01 | 73 | 1001.7 |
| 20260507183427 | 15 | 90 | 1.6 | 6.4 | 0.00 | 0.38 | 4.01 | 73 | 1001.6 |
| 20260507182914 | 15 | 0 | 3.2 | 6.4 | 0.00 | 0.38 | 4.01 | 74 | 1002.1 |
| 20260507182406 | 15 | 315 | 3.2 | 9.7 | 0.00 | 0.38 | 4.01 | 73 | 1002.3 |
| 20260507181851 | 15 | 90 | 1.6 | 12.9 | 0.00 | 0.38 | 4.01 | 73 | 1002.7 |
| 20260507181340 | 15 | 68 | 1.6 | 12.9 | 0.00 | 0.38 | 4.01 | 73 | 1003.1 |
| 20260507180833 | 15 | 45 | 1.6 | 6.4 | 0.00 | 0.38 | 4.01 | 73 | 1003.2 |
| 20260507180333 | 15 | 45 | 3.2 | 6.4 | 0.00 | 0.38 | 4.01 | 74 | 1002.9 |
| 20260507175813 | 15 | 68 | 0.0 | 6.4 | 0.00 | 0.38 | 4.01 | 75 | 1003.0 |
| 20260507174245 | 15 | 68 | 0.0 | 6.4 | 0.00 | 0.38 | 4.01 | 76 | 1002.0 |
| 20260507173734 | 15 | 0 | 1.6 | 3.2 | 0.00 | 0.38 | 4.01 | 77 | 1001.6 |
| 20260507173224 | 15 | 68 | 1.6 | 3.2 | 0.00 | 0.38 | 4.01 | 78 | 1001.1 |
| 20260507172712 | 15 | 90 | 1.6 | 3.2 | 0.00 | 0.38 | 4.01 | 78 | 1000.8 |
| 20260507172202 | 15 | 68 | 1.6 | 3.2 | 0.00 | 0.38 | 4.01 | 77 | 1000.8 |
| 20260507171653 | 15 | 68 | 1.6 | 3.2 | 0.00 | 0.38 | 4.01 | 77 | 1001.3 |
| 20260507171143 | 15 | 23 | 0.0 | 6.4 | 0.00 | 0.38 | 4.01 | 77 | 1001.8 |
| 20260507170632 | 15 | 45 | 1.6 | 6.4 | 0.00 | 0.38 | 4.01 | 76 | 1001.6 |
| 20260507170124 | 15 | 68 | 1.6 | 3.2 | 0.00 | 0.38 | 4.01 | 75 | 1002.4 |
| 20260507165614 | 15 | 0 | 1.6 | 3.2 | 0.00 | 0.38 | 4.01 | 75 | 1002.5 |
| 20260507165102 | 15 | 68 | 1.6 | 6.4 | 0.00 | 0.38 | 4.01 | 75 | 1002.4 |
| 20260507164552 | 15 | 45 | 1.6 | 9.7 | 0.00 | 0.38 | 4.01 | 76 | 1003.0 |
| 20260507164041 | 16 | 68 | 3.2 | 9.7 | 0.00 | 0.38 | 4.01 | 76 | 1003.5 |
| 20260507163532 | 16 | 113 | 1.6 | 6.4 | 0.00 | 0.38 | 4.01 | 77 | 1003.2 |
| 20260507162510 | 16 | 68 | 0.0 | 6.4 | 0.00 | 0.38 | 4.01 | 77 | 1002.5 |
| 20260507162001 | 16 | 68 | 1.6 | 6.4 | 0.00 | 0.38 | 4.01 | 78 | 1001.8 |
| 20260507161451 | 16 | 338 | 0.0 | 6.4 | 0.00 | 0.38 | 4.01 | 78 | 1001.3 |
| 20260507160940 | 16 | 23 | 3.2 | 6.4 | 0.00 | 0.38 | 4.01 | 78 | 1001.3 |
| 20260507160432 | 16 | 68 | 1.6 | 6.4 | 0.00 | 0.38 | 4.01 | 78 | 1001.1 |
| 20260507155410 | 16 | 68 | 1.6 | 6.4 | 0.00 | 0.38 | 4.01 | 80 | 1001.4 |
| 20260507154900 | 16 | 90 | 0.0 | 6.4 | 0.00 | 0.38 | 4.01 | 81 | 1001.4 |
| 20260507154349 | 16 | 68 | 1.6 | 6.4 | 0.00 | 0.38 | 4.01 | 81 | 1001.9 |
| 20260507153840 | 16 | 68 | 1.6 | 6.4 | 0.00 | 0.38 | 4.01 | 82 | 1001.9 |
| 20260507152819 | 16 | 45 | 3.2 | 9.7 | 0.00 | 0.38 | 4.01 | 83 | 1001.5 |
| 20260507151759 | 16 | 45 | 0.0 | 6.4 | 0.00 | 0.38 | 4.01 | 84 | 1001.5 |
| 20260507150739 | 16 | 90 | 1.6 | 6.4 | 0.00 | 0.38 | 4.01 | 84 | 1002.2 |
| 20260507150229 | 16 | 23 | 1.6 | 6.4 | 0.00 | 0.38 | 4.01 | 84 | 1002.2 |